Time,TemperatureF,DewpointF,PressureIn,WindDirection,WindDirectionDegrees,WindSpeedMPH,WindSpeedGustMPH,Humidity,HourlyPrecipIn,Conditions,Clouds,dailyrainin,SoftwareType,DateUTC
2013-03-02 00:07:00,54.0,27.0,30.27,WNW,301,0.0,-999.0,36,-99.99,,,0.00,weatherlink.com 1.10,2013-03-02 07:07:00,
2013-03-02 00:22:00,53.9,27.0,30.27,WNW,301,0.0,-999.0,36,-99.99,,,0.00,weatherlink.com 1.10,2013-03-02 07:22:00,
2013-03-02 00:37:00,53.6,27.0,30.27,WNW,301,0.0,-999.0,36,-99.99,,,0.00,weatherlink.com 1.10,2013-03-02 07:37:00,
2013-03-02 00:52:00,53.7,27.0,30.27,WNW,301,0.0,-999.0,36,-99.99,,,0.00,weatherlink.com 1.10,2013-03-02 07:52:00,
2013-03-02 01:07:00,52.7,27.0,30.27,WNW,301,0.0,-999.0,37,-99.99,,,0.00,weatherlink.com 1.10,2013-03-02 08:07:00,
2013-03-02 01:23:00,51.2,27.0,30.27,WNW,301,0.0,-999.0,39,-99.99,,,0.00,weatherlink.com 1.10,2013-03-02 08:23:00,
2013-03-02 01:38:00,50.7,27.0,30.27,WNW,301,0.0,-999.0,40,-99.99,,,0.00,weatherlink.com 1.10,2013-03-02 08:38:00,
2013-03-02 01:53:00,50.9,27.0,30.27,WNW,301,0.0,-999.0,40,-99.99,,,0.00,weatherlink.com 1.10,2013-03-02 08:53:00,
2013-03-02 02:08:00,51.1,27.0,30.28,WNW,301,0.0,-999.0,40,-99.99,,,0.00,weatherlink.com 1.10,2013-03-02 09:08:00,
2013-03-02 02:23:00,51.7,27.0,30.28,WNW,301,0.0,-999.0,39,-99.99,,,0.00,weatherlink.com 1.10,2013-03-02 09:23:00,
2013-03-02 02:38:00,51.5,27.0,30.28,WNW,301,0.0,-999.0,39,-99.99,,,0.00,weatherlink.com 1.10,2013-03-02 09:38:00,
2013-03-02 02:53:00,50.9,28.0,30.28,WNW,301,0.0,-999.0,41,-99.99,,,0.00,weatherlink.com 1.10,2013-03-02 09:53:00,
2013-03-02 03:23:00,50.0,28.0,30.27,WNW,301,0.0,-999.0,42,-99.99,,,0.00,weatherlink.com 1.10,2013-03-02 10:23:00,
2013-03-02 03:38:00,50.0,27.0,30.28,WNW,301,2.0,-999.0,41,-99.99,,,0.00,weatherlink.com 1.10,2013-03-02 10:38:00,
2013-03-02 03:53:00,50.0,26.0,30.28,WNW,301,0.0,-999.0,40,-99.99,,,0.00,weatherlink.com 1.10,2013-03-02 10:53:00,
2013-03-02 04:08:00,49.5,26.0,30.28,WNW,301,0.0,-999.0,41,-99.99,,,0.00,weatherlink.com 1.10,2013-03-02 11:08:00,
2013-03-02 04:23:00,48.7,26.0,30.28,WNW,301,1.0,-999.0,42,-99.99,,,0.00,weatherlink.com 1.10,2013-03-02 11:23:00,
2013-03-02 04:38:00,48.2,27.0,30.28,WNW,301,2.0,-999.0,44,-99.99,,,0.00,weatherlink.com 1.10,2013-03-02 11:38:00,
2013-03-02 04:53:00,48.1,28.0,30.28,WNW,301,0.0,-999.0,45,-99.99,,,0.00,weatherlink.com 1.10,2013-03-02 11:53:00,
2013-03-02 05:08:00,47.9,28.0,30.28,WNW,301,0.0,-999.0,46,-99.99,,,0.00,weatherlink.com 1.10,2013-03-02 12:08:00,
2013-03-02 05:23:00,47.6,28.0,30.28,WNW,301,0.0,-999.0,46,-99.99,,,0.00,weatherlink.com 1.10,2013-03-02 12:23:00,
2013-03-02 05:38:00,47.4,27.0,30.28,WNW,301,0.0,-999.0,46,-99.99,,,0.00,weatherlink.com 1.10,2013-03-02 12:38:00,
2013-03-02 05:53:00,47.0,28.0,30.28,WNW,301,0.0,-999.0,47,-99.99,,,0.00,weatherlink.com 1.10,2013-03-02 12:53:00,
2013-03-02 06:08:00,46.8,28.0,30.27,WNW,301,0.0,-999.0,48,-99.99,,,0.00,weatherlink.com 1.10,2013-03-02 13:08:00,
2013-03-02 06:23:00,46.4,28.0,30.27,WNW,301,0.0,-999.0,49,-99.99,,,0.00,weatherlink.com 1.10,2013-03-02 13:23:00,
2013-03-02 06:37:00,45.8,27.0,30.27,WNW,301,0.0,-999.0,49,-99.99,,,0.00,weatherlink.com 1.10,2013-03-02 13:37:00,
2013-03-02 06:53:00,45.6,27.0,30.27,WNW,301,1.0,-999.0,49,-99.99,,,0.00,weatherlink.com 1.10,2013-03-02 13:53:00,
2013-03-02 07:08:00,45.5,27.0,30.27,WNW,301,0.0,-999.0,49,-99.99,,,0.00,weatherlink.com 1.10,2013-03-02 14:08:00,
2013-03-02 07:23:00,45.5,27.0,30.27,WNW,301,0.0,-999.0,49,-99.99,,,0.00,weatherlink.com 1.10,2013-03-02 14:23:00,
2013-03-02 07:38:00,45.9,27.0,30.27,WNW,301,0.0,-999.0,48,-99.99,,,0.00,weatherlink.com 1.10,2013-03-02 14:38:00,
2013-03-02 07:53:00,48.7,29.0,30.28,WNW,301,1.0,-999.0,46,-99.99,,,0.00,weatherlink.com 1.10,2013-03-02 14:53:00,
2013-03-02 08:08:00,51.5,29.0,30.28,WNW,301,0.0,-999.0,42,-99.99,,,0.00,weatherlink.com 1.10,2013-03-02 15:08:00,
2013-03-02 08:23:00,53.2,29.0,30.29,WNW,301,0.0,-999.0,40,-99.99,,,0.00,weatherlink.com 1.10,2013-03-02 15:23:00,
2013-03-02 08:38:00,56.1,31.0,30.29,WNW,301,0.0,-999.0,38,-99.99,,,0.00,weatherlink.com 1.10,2013-03-02 15:38:00,
2013-03-02 08:53:00,59.7,30.0,30.30,WNW,301,0.0,-999.0,33,-99.99,,,0.00,weatherlink.com 1.10,2013-03-02 15:53:00,
2013-03-02 09:09:00,60.2,31.0,30.30,WNW,301,1.0,-999.0,33,-99.99,,,0.00,weatherlink.com 1.10,2013-03-02 16:09:00,
2013-03-02 09:23:00,60.6,30.0,30.30,WNW,301,3.0,-999.0,32,-99.99,,,0.00,weatherlink.com 1.10,2013-03-02 16:23:00,
2013-03-02 09:38:00,61.7,31.0,30.30,WNW,301,2.0,-999.0,31,-99.99,,,0.00,weatherlink.com 1.10,2013-03-02 16:38:00,
2013-03-02 09:53:00,62.6,31.0,30.30,WNW,301,2.0,-999.0,30,-99.99,,,0.00,weatherlink.com 1.10,2013-03-02 16:53:00,
2013-03-02 10:08:00,63.7,31.0,30.30,WNW,301,0.0,-999.0,29,-99.99,,,0.00,weatherlink.com 1.10,2013-03-02 17:08:00,
2013-03-02 10:24:00,65.4,31.0,30.30,WNW,301,0.0,-999.0,28,-99.99,,,0.00,weatherlink.com 1.10,2013-03-02 17:24:00,
2013-03-02 10:38:00,66.9,32.0,30.30,WNW,301,0.0,-999.0,27,-99.99,,,0.00,weatherlink.com 1.10,2013-03-02 17:38:00,
2013-03-02 10:54:00,68.9,32.0,30.29,WNW,301,2.0,-999.0,25,-99.99,,,0.00,weatherlink.com 1.10,2013-03-02 17:54:00,
2013-03-02 11:24:00,71.4,31.0,30.28,NW,311,2.0,-999.0,22,-99.99,,,0.00,weatherlink.com 1.10,2013-03-02 18:24:00,
2013-03-02 11:38:00,73.2,31.0,30.27,NW,311,2.0,-999.0,21,-99.99,,,0.00,weatherlink.com 1.10,2013-03-02 18:38:00,
2013-03-02 11:54:00,74.0,30.0,30.26,NNW,331,3.0,-999.0,20,-99.99,,,0.00,weatherlink.com 1.10,2013-03-02 18:54:00,
2013-03-02 12:09:00,75.1,31.0,30.26,NNW,331,0.0,-999.0,20,-99.99,,,0.00,weatherlink.com 1.10,2013-03-02 19:09:00,
2013-03-02 12:24:00,76.2,31.0,30.25,NW,322,0.0,-999.0,19,-99.99,,,0.00,weatherlink.com 1.10,2013-03-02 19:24:00,
2013-03-02 12:39:00,77.2,29.0,30.24,WNW,300,2.0,-999.0,17,-99.99,,,0.00,weatherlink.com 1.10,2013-03-02 19:39:00,
2013-03-02 12:54:00,78.4,30.0,30.23,WNW,302,0.0,-999.0,17,-99.99,,,0.00,weatherlink.com 1.10,2013-03-02 19:54:00,
2013-03-02 13:09:00,78.6,29.0,30.22,NW,320,2.0,-999.0,16,-99.99,,,0.00,weatherlink.com 1.10,2013-03-02 20:09:00,
2013-03-02 13:24:00,79.0,29.0,30.21,NW,310,4.0,-999.0,16,-99.99,,,0.00,weatherlink.com 1.10,2013-03-02 20:24:00,
2013-03-02 13:39:00,79.2,29.0,30.19,NW,306,0.0,-999.0,16,-99.99,,,0.00,weatherlink.com 1.10,2013-03-02 20:39:00,
2013-03-02 13:54:00,80.0,30.0,30.18,WNW,292,5.0,-999.0,16,-99.99,,,0.00,weatherlink.com 1.10,2013-03-02 20:54:00,
2013-03-02 14:09:00,80.6,30.0,30.18,WNW,291,2.0,-999.0,16,-99.99,,,0.00,weatherlink.com 1.10,2013-03-02 21:09:00,
2013-03-02 14:24:00,81.7,30.0,30.17,WNW,296,1.0,-999.0,15,-99.99,,,0.00,weatherlink.com 1.10,2013-03-02 21:24:00,
2013-03-02 14:39:00,82.0,30.0,30.16,WNW,296,0.0,-999.0,15,-99.99,,,0.00,weatherlink.com 1.10,2013-03-02 21:39:00,
2013-03-02 14:55:00,82.1,30.0,30.16,WNW,296,3.0,-999.0,15,-99.99,,,0.00,weatherlink.com 1.10,2013-03-02 21:55:00,
2013-03-02 15:10:00,81.9,30.0,30.15,WNW,297,0.0,-999.0,15,-99.99,,,0.00,weatherlink.com 1.10,2013-03-02 22:10:00,
2013-03-02 15:39:00,83.7,30.0,30.13,WNW,298,0.0,-999.0,14,-99.99,,,0.00,weatherlink.com 1.10,2013-03-02 22:39:00,
2013-03-02 15:54:00,84.3,30.0,30.13,WNW,298,0.0,-999.0,14,-99.99,,,0.00,weatherlink.com 1.10,2013-03-02 22:54:00,
2013-03-02 16:10:00,84.5,30.0,30.12,WNW,298,1.0,-999.0,14,-99.99,,,0.00,weatherlink.com 1.10,2013-03-02 23:10:00,
2013-03-02 16:25:00,83.9,30.0,30.12,WNW,298,0.0,-999.0,14,-99.99,,,0.00,weatherlink.com 1.10,2013-03-02 23:25:00,
2013-03-02 16:40:00,83.9,30.0,30.11,WNW,298,0.0,-999.0,14,-99.99,,,0.00,weatherlink.com 1.10,2013-03-02 23:40:00,
2013-03-02 16:55:00,83.5,29.0,30.11,WNW,298,2.0,-999.0,14,-99.99,,,0.00,weatherlink.com 1.10,2013-03-02 23:55:00,
2013-03-02 17:09:00,82.7,31.0,30.10,WNW,303,5.0,-999.0,15,-99.99,,,0.00,weatherlink.com 1.10,2013-03-03 00:09:00,
2013-03-02 17:25:00,82.3,30.0,30.10,WNW,303,2.0,-999.0,15,-99.99,,,0.00,weatherlink.com 1.10,2013-03-03 00:25:00,
2013-03-02 17:40:00,81.1,31.0,30.10,WNW,301,5.0,-999.0,16,-99.99,,,0.00,weatherlink.com 1.10,2013-03-03 00:40:00,
2013-03-02 17:55:00,80.0,30.0,30.09,WNW,301,1.0,-999.0,16,-99.99,,,0.00,weatherlink.com 1.10,2013-03-03 00:55:00,
2013-03-02 18:10:00,78.4,30.0,30.09,WNW,301,0.0,-999.0,17,-99.99,,,0.00,weatherlink.com 1.10,2013-03-03 01:10:00,
2013-03-02 18:25:00,77.0,30.0,30.09,WNW,301,0.0,-999.0,18,-99.99,,,0.00,weatherlink.com 1.10,2013-03-03 01:25:00,
2013-03-02 18:39:00,75.4,32.0,30.09,WNW,301,0.0,-999.0,20,-99.99,,,0.00,weatherlink.com 1.10,2013-03-03 01:39:00,
2013-03-02 18:54:00,73.7,32.0,30.09,WNW,301,0.0,-999.0,22,-99.99,,,0.00,weatherlink.com 1.10,2013-03-03 01:54:00,
2013-03-02 19:10:00,71.2,33.0,30.09,WNW,301,0.0,-999.0,24,-99.99,,,0.00,weatherlink.com 1.10,2013-03-03 02:10:00,
2013-03-02 19:25:00,69.1,33.0,30.09,WNW,301,0.0,-999.0,26,-99.99,,,0.00,weatherlink.com 1.10,2013-03-03 02:25:00,
2013-03-02 19:40:00,68.5,33.0,30.09,WNW,301,0.0,-999.0,27,-99.99,,,0.00,weatherlink.com 1.10,2013-03-03 02:40:00,
2013-03-02 19:55:00,66.5,33.0,30.09,WNW,301,0.0,-999.0,29,-99.99,,,0.00,weatherlink.com 1.10,2013-03-03 02:55:00,
2013-03-02 20:10:00,65.0,34.0,30.08,WNW,301,0.0,-999.0,32,-99.99,,,0.00,weatherlink.com 1.10,2013-03-03 03:10:00,
2013-03-02 20:24:00,63.6,34.0,30.08,WNW,301,0.0,-999.0,33,-99.99,,,0.00,weatherlink.com 1.10,2013-03-03 03:24:00,
2013-03-02 20:39:00,63.0,34.0,30.09,WNW,301,0.0,-999.0,34,-99.99,,,0.00,weatherlink.com 1.10,2013-03-03 03:39:00,
2013-03-02 20:54:00,62.8,35.0,30.09,WNW,301,0.0,-999.0,35,-99.99,,,0.00,weatherlink.com 1.10,2013-03-03 03:54:00,
2013-03-02 21:09:00,62.3,35.0,30.09,WNW,301,0.0,-999.0,36,-99.99,,,0.00,weatherlink.com 1.10,2013-03-03 04:09:00,
2013-03-02 21:24:00,61.6,36.0,30.09,WNW,301,0.0,-999.0,38,-99.99,,,0.00,weatherlink.com 1.10,2013-03-03 04:24:00,
2013-03-02 21:39:00,61.4,35.0,30.09,WNW,301,0.0,-999.0,38,-99.99,,,0.00,weatherlink.com 1.10,2013-03-03 04:39:00,
2013-03-02 21:54:00,60.9,36.0,30.09,WNW,301,0.0,-999.0,39,-99.99,,,0.00,weatherlink.com 1.10,2013-03-03 04:54:00,
2013-03-02 22:09:00,60.8,36.0,30.09,WNW,301,0.0,-999.0,40,-99.99,,,0.00,weatherlink.com 1.10,2013-03-03 05:09:00,
2013-03-02 22:25:00,60.5,36.0,30.09,WNW,301,0.0,-999.0,40,-99.99,,,0.00,weatherlink.com 1.10,2013-03-03 05:25:00,
2013-03-02 22:39:00,61.4,35.0,30.09,WNW,301,0.0,-999.0,38,-99.99,,,0.00,weatherlink.com 1.10,2013-03-03 05:39:00,
2013-03-02 22:54:00,61.8,35.0,30.09,WNW,301,0.0,-999.0,37,-99.99,,,0.00,weatherlink.com 1.10,2013-03-03 05:54:00,
2013-03-02 23:10:00,61.7,35.0,30.09,WNW,301,0.0,-999.0,37,-99.99,,,0.00,weatherlink.com 1.10,2013-03-03 06:10:00,
2013-03-02 23:25:00,61.5,35.0,30.09,WNW,301,0.0,-999.0,37,-99.99,,,0.00,weatherlink.com 1.10,2013-03-03 06:25:00,
2013-03-02 23:40:00,61.3,35.0,30.09,WNW,301,4.0,-999.0,37,-99.99,,,0.00,weatherlink.com 1.10,2013-03-03 06:40:00,
2013-03-02 23:55:00,61.2,34.0,30.08,WNW,301,2.0,-999.0,36,-99.99,,,0.00,weatherlink.com 1.10,2013-03-03 06:55:00,